Time,TemperatureF,DewpointF,PressureIn,WindDirection,WindDirectionDegrees,WindSpeedMPH,WindSpeedGustMPH,Humidity,HourlyPrecipIn,Conditions,Clouds,dailyrainin,SoftwareType,DateUTC
2013-12-13 00:02:00,17.0,12.0,-100.00,South,185,0.0,3.0,80,-99.99,,,-99.99,,2013-12-13 06:02:00,
2013-12-13 00:43:00,18.0,13.0,-100.00,South,185,2.0,6.0,81,-99.99,,,-99.99,,2013-12-13 06:43:00,
2013-12-13 00:52:00,18.0,13.0,-100.00,South,185,2.0,6.0,81,-99.99,,,-99.99,,2013-12-13 06:52:00,
2013-12-13 01:02:00,18.0,13.0,-100.00,South,185,2.0,6.0,81,-99.99,,,-99.99,,2013-12-13 07:02:00,
2013-12-13 01:22:00,18.0,13.0,-100.00,North,-999,-999.0,-999.0,83,-99.99,,,-99.99,,2013-12-13 07:22:00,
2013-12-13 01:42:00,18.0,13.0,-100.00,South,185,3.0,6.0,83,-99.99,,,-99.99,,2013-12-13 07:42:00,
2013-12-13 01:52:00,18.0,13.0,-100.00,South,185,3.0,6.0,83,-99.99,,,-99.99,,2013-12-13 07:52:00,
2013-12-13 02:02:00,18.0,13.0,-100.00,South,185,3.0,6.0,83,-99.99,,,-99.99,,2013-12-13 08:02:00,
2013-12-13 02:42:00,17.0,13.0,-100.00,South,185,1.0,2.0,84,-99.99,,,-99.99,,2013-12-13 08:42:00,
2013-12-13 02:52:00,17.0,13.0,-100.00,South,185,1.0,2.0,84,-99.99,,,-99.99,,2013-12-13 08:52:00,
2013-12-13 03:02:00,17.0,13.0,-100.00,South,185,1.0,2.0,84,-99.99,,,-99.99,,2013-12-13 09:02:00,
2013-12-13 03:22:00,17.0,14.0,-100.00,South,185,0.0,1.0,86,-99.99,,,-99.99,,2013-12-13 09:22:00,
2013-12-13 03:43:00,17.0,14.0,-100.00,South,185,0.0,1.0,86,-99.99,,,-99.99,,2013-12-13 09:43:00,
2013-12-13 03:53:00,17.0,14.0,-100.00,South,185,0.0,1.0,86,-99.99,,,-99.99,,2013-12-13 09:53:00,
2013-12-13 04:03:00,17.0,14.0,-100.00,South,185,0.0,1.0,86,-99.99,,,-99.99,,2013-12-13 10:03:00,
2013-12-13 04:43:00,17.0,14.0,-100.00,South,185,0.0,2.0,88,-99.99,,,-99.99,,2013-12-13 10:43:00,
2013-12-13 04:53:00,17.0,14.0,-100.00,South,185,0.0,2.0,88,-99.99,,,-99.99,,2013-12-13 10:53:00,
2013-12-13 05:02:00,17.0,14.0,-100.00,South,185,0.0,2.0,88,-99.99,,,-99.99,,2013-12-13 11:02:00,
2013-12-13 05:43:00,17.0,15.0,-100.00,South,185,4.0,9.0,89,-99.99,,,-99.99,,2013-12-13 11:43:00,
2013-12-13 05:53:00,17.0,15.0,-100.00,South,185,4.0,9.0,89,-99.99,,,-99.99,,2013-12-13 11:53:00,
2013-12-13 06:02:00,17.0,15.0,-100.00,South,185,4.0,9.0,89,-99.99,,,-99.99,,2013-12-13 12:02:00,
2013-12-13 06:42:00,16.0,13.0,-100.00,South,185,3.0,4.0,89,-99.99,,,-99.99,,2013-12-13 12:42:00,
2013-12-13 06:53:00,16.0,13.0,-100.00,South,185,3.0,4.0,89,-99.99,,,-99.99,,2013-12-13 12:53:00,
2013-12-13 07:02:00,16.0,13.0,-100.00,South,185,3.0,4.0,89,-99.99,,,-99.99,,2013-12-13 13:02:00,
2013-12-13 08:43:00,15.0,11.0,-100.00,South,185,5.0,9.0,85,-99.99,,,-99.99,,2013-12-13 14:43:00,
2013-12-13 08:53:00,15.0,11.0,-100.00,South,185,5.0,9.0,85,-99.99,,,-99.99,,2013-12-13 14:53:00,
2013-12-13 09:02:00,15.0,11.0,-100.00,South,185,5.0,9.0,85,-99.99,,,-99.99,,2013-12-13 15:02:00,
2013-12-13 09:44:00,17.0,12.0,-100.00,South,185,4.0,9.0,81,-99.99,,,-99.99,,2013-12-13 15:44:00,
2013-12-13 09:54:00,17.0,12.0,-100.00,South,185,4.0,9.0,81,-99.99,,,-99.99,,2013-12-13 15:54:00,
2013-12-13 10:03:00,17.0,12.0,-100.00,South,185,4.0,9.0,81,-99.99,,,-99.99,,2013-12-13 16:03:00,
2013-12-13 10:43:00,18.0,12.0,-100.00,South,185,6.0,9.0,76,-99.99,,,-99.99,,2013-12-13 16:43:00,
2013-12-13 10:53:00,18.0,12.0,-100.00,South,185,6.0,9.0,76,-99.99,,,-99.99,,2013-12-13 16:53:00,
2013-12-13 11:02:00,18.0,12.0,-100.00,South,185,6.0,9.0,76,-99.99,,,-99.99,,2013-12-13 17:02:00,
2013-12-13 11:43:00,19.0,11.0,-100.00,South,185,7.0,14.0,71,-99.99,,,-99.99,,2013-12-13 17:43:00,
2013-12-13 11:52:00,19.0,11.0,-100.00,South,185,7.0,14.0,71,-99.99,,,-99.99,,2013-12-13 17:52:00,
2013-12-13 12:02:00,19.0,11.0,-100.00,South,185,7.0,14.0,71,-99.99,,,-99.99,,2013-12-13 18:02:00,
2013-12-13 12:42:00,19.0,11.0,-100.00,South,185,7.0,14.0,69,-99.99,,,-99.99,,2013-12-13 18:42:00,
2013-12-13 12:52:00,19.0,11.0,-100.00,South,185,7.0,14.0,69,-99.99,,,-99.99,,2013-12-13 18:52:00,
2013-12-13 13:02:00,19.0,11.0,-100.00,South,185,7.0,14.0,69,-99.99,,,-99.99,,2013-12-13 19:02:00,
2013-12-13 13:42:00,21.0,11.0,-100.00,South,185,7.0,12.0,67,-99.99,,,-99.99,,2013-12-13 19:42:00,
2013-12-13 13:52:00,21.0,11.0,-100.00,South,185,7.0,12.0,67,-99.99,,,-99.99,,2013-12-13 19:52:00,
2013-12-13 14:02:00,21.0,11.0,-100.00,South,185,7.0,12.0,67,-99.99,,,-99.99,,2013-12-13 20:02:00,
2013-12-13 14:42:00,21.0,11.0,-100.00,South,185,6.0,11.0,66,-99.99,,,-99.99,,2013-12-13 20:42:00,
2013-12-13 14:53:00,21.0,11.0,-100.00,South,185,6.0,11.0,66,-99.99,,,-99.99,,2013-12-13 20:53:00,
2013-12-13 15:02:00,21.0,11.0,-100.00,South,185,6.0,11.0,66,-99.99,,,-99.99,,2013-12-13 21:02:00,
2013-12-13 15:43:00,20.0,11.0,-100.00,South,185,7.0,14.0,68,-99.99,,,-99.99,,2013-12-13 21:43:00,
2013-12-13 15:53:00,20.0,11.0,-100.00,South,185,7.0,14.0,68,-99.99,,,-99.99,,2013-12-13 21:53:00,
2013-12-13 16:03:00,20.0,11.0,-100.00,South,185,7.0,14.0,68,-99.99,,,-99.99,,2013-12-13 22:03:00,
2013-12-13 16:42:00,19.0,11.0,-100.00,South,185,6.0,14.0,72,-99.99,,,-99.99,,2013-12-13 22:42:00,
2013-12-13 16:53:00,19.0,11.0,-100.00,South,185,6.0,14.0,72,-99.99,,,-99.99,,2013-12-13 22:53:00,
2013-12-13 17:03:00,19.0,11.0,-100.00,South,185,6.0,14.0,72,-99.99,,,-99.99,,2013-12-13 23:03:00,
2013-12-13 17:42:00,17.0,10.0,-100.00,South,185,9.0,16.0,74,-99.99,,,-99.99,,2013-12-13 23:42:00,
2013-12-13 17:53:00,17.0,10.0,-100.00,South,185,9.0,16.0,74,-99.99,,,-99.99,,2013-12-13 23:53:00,
2013-12-13 18:02:00,17.0,10.0,-100.00,South,185,9.0,16.0,74,-99.99,,,-99.99,,2013-12-14 00:02:00,
2013-12-13 18:42:00,16.0,10.0,-100.00,South,185,6.0,12.0,76,-99.99,,,-99.99,,2013-12-14 00:42:00,
2013-12-13 18:52:00,16.0,10.0,-100.00,South,185,6.0,12.0,76,-99.99,,,-99.99,,2013-12-14 00:52:00,
2013-12-13 19:02:00,16.0,10.0,-100.00,South,185,6.0,12.0,76,-99.99,,,-99.99,,2013-12-14 01:02:00,
2013-12-13 19:42:00,15.0,8.0,-100.00,South,190,7.0,14.0,75,-99.99,,,-99.99,,2013-12-14 01:42:00,
2013-12-13 19:52:00,15.0,8.0,-100.00,South,190,7.0,14.0,75,-99.99,,,-99.99,,2013-12-14 01:52:00,
2013-12-13 20:01:00,15.0,8.0,-100.00,South,190,7.0,14.0,75,-99.99,,,-99.99,,2013-12-14 02:01:00,
2013-12-13 21:43:00,13.0,5.0,-100.00,SSW,205,9.0,14.0,70,-99.99,,,-99.99,,2013-12-14 03:43:00,
2013-12-13 21:54:00,13.0,5.0,-100.00,SSW,205,9.0,14.0,70,-99.99,,,-99.99,,2013-12-14 03:54:00,
2013-12-13 22:03:00,13.0,5.0,-100.00,SSW,205,9.0,14.0,70,-99.99,,,-99.99,,2013-12-14 04:03:00,
2013-12-13 22:43:00,13.0,5.0,-100.00,SSW,205,6.0,14.0,71,-99.99,,,-99.99,,2013-12-14 04:43:00,
2013-12-13 22:53:00,13.0,5.0,-100.00,SSW,205,6.0,14.0,71,-99.99,,,-99.99,,2013-12-14 04:53:00,
2013-12-13 23:03:00,13.0,5.0,-100.00,SSW,205,6.0,14.0,71,-99.99,,,-99.99,,2013-12-14 05:03:00,
2013-12-13 23:42:00,13.0,6.0,-100.00,SSW,205,6.0,14.0,73,-99.99,,,-99.99,,2013-12-14 05:42:00,
2013-12-13 23:53:00,13.0,6.0,-100.00,SSW,205,6.0,14.0,73,-99.99,,,-99.99,,2013-12-14 05:53:00,